FECHA, PRODUCCION
2010-05-01, 0
2010-05-02, 0
2010-05-03, 0
2010-05-04, 0
2010-05-05, 0
2010-05-06, 0
2010-05-07, 0
2010-05-08, 0
2010-05-09, 0
2010-05-10, 0
2010-05-11, 0
2010-05-12, 0
2010-05-13, 0
2010-05-14, 0
2010-05-15, 0
2010-05-16, 0
2010-05-17, 0
2010-05-18, 0
2010-05-19, 0
2010-05-20, 0
2010-05-21, 0
2010-05-22, 0
2010-05-23, 0
2010-05-24, 0
2010-05-25, 0
2010-05-26, 0
2010-05-27, 0
2010-05-28, 0
2010-05-29, 0
2010-05-30, 0
2010-05-31, 0
2010-06-01, 0
2010-06-02, 0
2010-06-03, 0
2010-06-04, 0
2010-06-05, 0
2010-06-06, 0
2010-06-07, 0
2010-06-08, 0
2010-06-09, 0
2010-06-10, 0
2010-06-11, 0
2010-06-12, 0
2010-06-13, 0
2010-06-14, 0
2010-06-15, 0
2010-06-16, 0
2010-06-17, 0
2010-06-18, 0
2010-06-19, 0
2010-06-20, 0
2010-06-21, 0
2010-06-22, 0
2010-06-23, 0
2010-06-24, 0
2010-06-25, 0
2010-06-26, 0
2010-06-27, 0
2010-06-28, 0
2010-06-29, 0
2010-06-30, 0
2010-07-01, 0
2010-07-02, 0
2010-07-03, 0
2010-07-04, 0
2010-07-05, 0
2010-07-06, 0
2010-07-07, 0
2010-07-08, 0
2010-07-09, 0
2010-07-10, 0
2010-07-11, 0
2010-07-12, 0
2010-07-13, 0
2010-07-14, 0
2010-07-15, 0
2010-07-16, 0
2010-07-17, 0
2010-07-18, 0
2010-07-19, 0
2010-07-20, 0
2010-07-21, 0
2010-07-22, 0
2010-07-23, 0
2010-07-24, 0
2010-07-25, 0
2010-07-26, 0
2010-07-27, 0
2010-07-28, 0
2010-07-29, 0
2010-07-30, 0
2010-07-31, 0
2010-08-01, 0
2010-08-02, 0
2010-08-03, 0
2010-08-04, 0
2010-08-05, 0
2010-08-06, 0
2010-08-07, 0
2010-08-08, 0
2010-08-09, 0
2010-08-10, 0
2010-08-11, 0
2010-08-12, 0
2010-08-13, 0
2010-08-14, 0
2010-08-15, 0
2010-08-16, 0
2010-08-17, 0
2010-08-18, 0
2010-08-19, 0
2010-08-20, 0
2010-08-21, 0
2010-08-22, 0
2010-08-23, 0
2010-08-24, 0
2010-08-25, 0
2010-08-26, 0
2010-08-27, 0
2010-08-28, 0
2010-08-29, 0
2010-08-30, 0
2010-08-31, 0
2010-09-01, 0
2010-09-02, 0
2010-09-03, 0
2010-09-04, 0
2010-09-05, 0
2010-09-06, 0
2010-09-07, 0
2010-09-08, 0
2010-09-09, 0
2010-09-10, 0
2010-09-11, 0
2010-09-12, 0
2010-09-13, 0
2010-09-14, 0
2010-09-15, 0
2010-09-16, 0
2010-09-17, 0
2010-09-18, 0
2010-09-19, 0
2010-09-20, 0
2010-09-21, 0
2010-09-22, 0
2010-09-23, 0
2010-09-24, 0
2010-09-25, 0
2010-09-26, 0
2010-09-27, 0
2010-09-28, 0
2010-09-29, 0
2010-09-30, 0
2010-10-01, 0
2010-10-02, 0
2010-10-03, 0
2010-10-04, 0
2010-10-05, 0
2010-10-06, 0
2010-10-07, 0
2010-10-08, 0
2010-10-09, 0
2010-10-10, 0
2010-10-11, 0
2010-10-12, 0
2010-10-13, 0
2010-10-14, 0
2010-10-15, 0
2010-10-16, 0
2010-10-17, 0
2010-10-18, 0
2010-10-19, 0
2010-10-20, 0
2010-10-21, 0
2010-10-22, 0
2010-10-23, 0
2010-10-24, 0
2010-10-25, 0
2010-10-26, 0
2010-10-27, 0
2010-10-28, 0
2010-10-29, 0
2010-10-30, 0
2010-10-31, 0
2010-11-01, 0
2010-11-02, 0
2010-11-03, 15.13
2010-11-04, 15.25
2010-11-05, 14.95
2010-11-06, 14.45
2010-11-07, 7.82
2010-11-08, 12.85
2010-11-09, 4.65
2010-11-10, 12.38
2010-11-11, 13.97
2010-11-12, 13.35
2010-11-13, 13.52
2010-11-14, 10.79
2010-11-15, 14.12
2010-11-16, 13.78
2010-11-17, 5.04
2010-11-18, 13.49
2010-11-19, 9.16
2010-11-20, 9.04
2010-11-21, 12.21
2010-11-22, 10.77
2010-11-23, 4.7
2010-11-24, 9.36
2010-11-25, 12.4
2010-11-26, 1.14
2010-11-27, 0.73
2010-11-28, 13.64
2010-11-29, 0.49
2010-11-30, 1.9
2010-12-01, 9.98
2010-12-02, 12.6
2010-12-03, 13.31
2010-12-04, 11.83
2010-12-05, 7
2010-12-06, 5.71
2010-12-07, 8.3
2010-12-08, 10.85
2010-12-09, 11.28
2010-12-10, 1.5
2010-12-11, 10.54
2010-12-12, 9.08
2010-12-13, 8.16
2010-12-14, 10.95
2010-12-15, 12.17
2010-12-16, 11.1
2010-12-17, 7.15
2010-12-18, 0.78
2010-12-19, 7.07
2010-12-20, 5.93
2010-12-21, 1.74
2010-12-22, 1.31
2010-12-23, 12.02
2010-12-24, 6.63
2010-12-25, 6.21
2010-12-26, 12.44
2010-12-27, 12.16
2010-12-28, 4.9
2010-12-29, 3.29
2010-12-30, 2.18
2010-12-31, 3.38
